Weather reports worldwide

Advertisment
Santander/Parayas, Spain (8021): temperature & dewpoint: 10.07.2018 18:00:00 - 16.07.2018 18:00:00 (CEST)Santander/Parayas, Spain (8021): wind speed: 10.07.2018 18:00:00 - 16.07.2018 18:00:00 (CEST)Santander/Parayas, Spain (8021): wind direction: 10.07.2018 18:00:00 - 16.07.2018 18:00:00 (CEST)Santander/Parayas, Spain (8021): reduced air pressure: 10.07.2018 18:00:00 - 16.07.2018 18:00:00 (CEST)Santander/Parayas, Spain (8021): visibility: 10.07.2018 18:00:00 - 16.07.2018 18:00:00 (CEST)
Date & Time tt [°C] td [°C] ff [km/h] ff [kn] dd ppp [hPa] vv [km]
16.07.2018 18:00:00 - - - - - - -
16.07.2018 17:00:00 24,1 17,6 18 10 W 1021,4 25
16.07.2018 16:00:00 23,8 18,1 18 10 WNW 1021,3 -
16.07.2018 15:00:00 22,6 18,3 18 10 WNW 1021,3 -
16.07.2018 14:00:00 21,6 18,7 18 10 W 1021,2 15
16.07.2018 13:00:00 19,9 19,2 15 8 WSW 1021,3 -
16.07.2018 12:00:00 18,9 17,9 15 8 SW 1021,0 -
16.07.2018 11:00:00 19,3 18,3 15 8 WSW 1020,3 11
16.07.2018 10:00:00 18,3 17,8 22 12 SW 1019,8 -
16.07.2018 09:00:00 18,8 17,5 15 8 SW 1019,5 -
16.07.2018 08:00:00 20,2 17,4 16 9 W 1019,0 15
16.07.2018 07:00:00 19,9 16,1 16 9 WSW 1018,7 -
16.07.2018 06:00:00 19,6 16,8 24 13 WSW 1018,3 -
16.07.2018 05:00:00 20,3 16,1 24 13 W 1018,4 -
16.07.2018 04:00:00 20,7 17,6 16 9 W 1018,3 -
16.07.2018 03:00:00 20,8 17,6 18 10 W 1018,6 -
16.07.2018 02:00:00 20,9 17,5 22 12 W 1018,4 -
16.07.2018 01:00:00 20,8 18,0 18 10 W 1018,5 -
16.07.2018 00:00:00 20,9 18,8 18 10 W 1018,3 -
15.07.2018 23:00:00 21,2 20,2 18 10 W 1018,0 8
15.07.2018 22:00:00 21,6 21,3 16 9 W 1016,8 -
15.07.2018 21:00:00 22,1 21,6 13 7 W 1016,6 -
15.07.2018 20:00:00 22,5 20,6 13 7 W 1016,4 9
15.07.2018 19:00:00 23,2 20,9 18 10 W 1016,2 -
15.07.2018 18:00:00 23,8 21,5 18 10 WNW 1015,6 -
15.07.2018 17:00:00 25,0 21,6 18 10 WNW 1015,7 10
15.07.2018 16:00:00 26,2 21,9 18 10 NW 1015,5 -
15.07.2018 15:00:00 26,2 21,9 13 7 WNW 1015,9 -
15.07.2018 14:00:00 23,6 21,3 15 8 WNW 1016,3 10
15.07.2018 13:00:00 23,5 21,0 15 8 WNW 1016,4 -
15.07.2018 12:00:00 24,0 21,6 15 8 WNW 1016,3 -
15.07.2018 11:00:00 24,6 21,5 13 7 W 1016,2 8
15.07.2018 10:00:00 23,2 21,5 9 5 WSW 1016,3 -
15.07.2018 09:00:00 22,3 21,8 11 6 SW 1016,2 -
15.07.2018 08:00:00 21,8 21,8 8 4 SW 1016,1 6
15.07.2018 07:00:00 21,1 21,1 9 5 SW 1015,9 -
15.07.2018 06:00:00 20,7 20,7 4 2 WSW 1015,7 -
15.07.2018 05:00:00 20,9 20,9 8 4 SW 1015,9 -
15.07.2018 04:00:00 21,1 21,1 5 3 SW 1016,4 -
15.07.2018 03:00:00 21,8 21,8 8 4 SSW 1016,6 -
15.07.2018 02:00:00 21,8 21,6 2 1 E 1016,4 -
15.07.2018 01:00:00 21,8 21,1 4 2 SW 1016,5 -
15.07.2018 00:00:00 22,0 21,0 8 4 SW 1016,8 -
14.07.2018 23:00:00 22,9 21,4 8 4 WSW 1016,9 15
14.07.2018 22:00:00 23,5 21,4 9 5 W 1016,1 15
14.07.2018 21:00:00 24,9 21,0 9 5 WNW 1016,0 -
14.07.2018 20:00:00 24,9 21,6 9 5 ENE 1015,9 12
14.07.2018 19:00:00 26,0 21,2 8 4 NNW 1015,8 -
14.07.2018 18:00:00 26,7 21,7 9 5 WNW 1016,1 -
14.07.2018 17:00:00 26,0 21,3 11 6 NNW 1016,2 15
14.07.2018 16:00:00 26,1 20,9 9 5 NE 1016,5 -
14.07.2018 15:00:00 26,4 21,5 9 5 N 1016,7 -
14.07.2018 14:00:00 26,7 21,6 9 5 NNW 1016,9 15
14.07.2018 13:00:00 26,0 21,4 11 6 WNW 1017,0 -
14.07.2018 12:00:00 26,5 22,1 8 4 WNW 1017,1 -
14.07.2018 11:00:00 25,2 20,9 9 5 W 1017,2 -
14.07.2018 10:00:00 23,7 20,4 11 6 SSW 1017,3 -
14.07.2018 09:00:00 21,9 20,1 11 6 SSW 1017,4 7
14.07.2018 08:00:00 20,6 20,4 11 6 SSW 1017,2 -
14.07.2018 07:00:00 19,3 19,3 8 4 SSW 1017,2 -
14.07.2018 06:00:00 20,2 20,2 2 1 WSW 1017,1 -
14.07.2018 05:00:00 20,7 20,7 5 3 SSW 1017,3 -
14.07.2018 04:00:00 20,7 20,5 8 4 WSW 1017,2 -
14.07.2018 03:00:00 21,1 19,9 8 4 S 1017,1 -
14.07.2018 02:00:00 21,8 20,8 24 13 NE 1016,7 -
14.07.2018 01:00:00 21,4 21,4 13 7 NNW 1017,3 -
14.07.2018 00:00:00 21,5 21,3 4 2 SSE 1018,6 -
13.07.2018 23:00:00 21,9 21,2 4 2 SSE 1019,2 15
13.07.2018 22:00:00 22,4 20,3 4 2 SE 1018,6 -
13.07.2018 21:00:00 23,1 20,2 11 6 NNE 1017,9 -
13.07.2018 20:00:00 23,3 19,8 13 7 NE 1017,4 20
13.07.2018 19:00:00 24,0 20,1 21 11 NE 1016,9 -
13.07.2018 18:00:00 25,1 20,1 22 12 NE 1017,1 -
13.07.2018 17:00:00 25,4 20,0 22 12 NE 1017,3 30
13.07.2018 16:00:00 25,1 20,4 22 12 NE 1017,3 -
13.07.2018 15:00:00 25,1 20,3 24 13 NE 1017,6 -
13.07.2018 14:00:00 25,1 19,4 24 13 NE 1017,7 30
13.07.2018 13:00:00 25,0 19,1 24 13 NE 1018,0 -
13.07.2018 12:00:00 25,0 19,3 21 11 NE 1018,0 -
13.07.2018 11:00:00 24,4 19,0 15 8 NE 1018,1 25
13.07.2018 10:00:00 23,4 18,1 4 2 ESE 1018,0 -
13.07.2018 09:00:00 21,1 17,5 0 0 N 1018,0 -
13.07.2018 08:00:00 18,4 18,4 0 0 N 1018,3 15
13.07.2018 07:00:00 16,0 16,0 0 0 N 1018,2 -
13.07.2018 06:00:00 16,4 16,4 0 0 N 1018,2 -
13.07.2018 05:00:00 16,7 16,5 4 2 S 1018,4 -
13.07.2018 04:00:00 17,0 16,5 0 0 N 1018,5 -
13.07.2018 03:00:00 17,0 16,0 8 4 SSE 1018,7 -
13.07.2018 02:00:00 18,0 16,0 5 3 SE 1018,8 -
13.07.2018 01:00:00 19,7 16,7 8 4 ENE 1019,2 -
13.07.2018 00:00:00 19,7 16,7 9 5 E 1019,3 -
12.07.2018 23:00:00 21,0 16,8 9 5 E 1019,1 15
12.07.2018 22:00:00 21,9 17,3 13 7 ENE 1018,4 -
12.07.2018 21:00:00 23,3 17,5 18 10 E 1018,3 -
12.07.2018 20:00:00 23,9 18,9 18 10 NE 1017,8 15
12.07.2018 19:00:00 23,5 19,8 16 9 NE 1017,7 -
12.07.2018 18:00:00 24,3 18,7 15 8 E 1017,7 -
12.07.2018 17:00:00 25,0 19,4 9 5 N 1018,1 15
12.07.2018 16:00:00 24,0 19,8 13 7 NW 1018,2 -
12.07.2018 15:00:00 24,8 19,3 11 6 NW 1018,4 -
12.07.2018 14:00:00 24,5 19,3 8 4 WNW 1018,5 15
12.07.2018 13:00:00 23,0 18,9 9 5 WSW 1018,8 -
12.07.2018 12:00:00 21,3 19,0 13 7 SW 1018,8 -
12.07.2018 11:00:00 20,3 19,1 9 5 SW 1018,5 -
12.07.2018 10:00:00 19,7 19,2 8 4 WSW 1018,3 -
12.07.2018 09:00:00 19,3 19,3 11 6 SSW 1018,0 -
12.07.2018 08:00:00 18,8 18,8 8 4 SW 1017,7 9
12.07.2018 07:00:00 18,4 18,4 11 6 SSW 1017,4 -
12.07.2018 06:00:00 18,2 18,2 9 5 SW 1017,3 -
12.07.2018 05:00:00 18,0 18,0 9 5 SSW 1017,6 -
12.07.2018 04:00:00 18,0 18,0 9 5 WSW 1017,9 -
12.07.2018 03:00:00 18,3 18,3 8 4 W 1017,7 -
12.07.2018 02:00:00 19,3 19,3 13 7 WSW 1017,4 -
12.07.2018 01:00:00 19,0 19,0 9 5 WSW 1017,7 -
12.07.2018 00:00:00 18,8 18,8 13 7 WSW 1017,2 -
11.07.2018 23:00:00 18,9 18,6 39 21 SSW 1017,1 2,5
11.07.2018 22:00:00 23,5 21,5 13 7 NNW 1015,9 -
11.07.2018 21:00:00 23,9 20,8 13 7 N 1015,6 -
11.07.2018 20:00:00 24,7 20,8 15 8 NE 1015,5 20
11.07.2018 19:00:00 25,2 20,5 13 7 NE 1015,6 -
11.07.2018 18:00:00 25,3 20,7 13 7 ENE 1015,7 -
11.07.2018 17:00:00 23,9 20,2 11 6 NE 1015,4 25
11.07.2018 16:00:00 24,5 20,1 15 8 ENE 1016,7 -
11.07.2018 15:00:00 25,2 20,5 15 8 ENE 1017,4 -
11.07.2018 14:00:00 26,0 18,4 9 5 N 1017,8 20
11.07.2018 13:00:00 24,8 19,4 11 6 NW 1018,4 -
11.07.2018 12:00:00 26,1 20,5 13 7 N 1017,7 -
11.07.2018 11:00:00 26,1 18,9 8 4 E 1017,2 15
11.07.2018 10:00:00 24,0 19,3 4 2 WSW 1017,3 -
11.07.2018 09:00:00 21,9 18,9 8 4 SW 1017,4 -
11.07.2018 08:00:00 20,0 19,5 8 4 SSW 1017,6 9
11.07.2018 07:00:00 18,4 18,4 5 3 SE 1017,9 -
11.07.2018 06:00:00 18,5 18,5 8 4 SSW 1017,8 -
11.07.2018 05:00:00 19,4 19,4 4 2 S 1017,9 -
11.07.2018 04:00:00 19,9 19,9 8 4 SSW 1018,2 -
11.07.2018 03:00:00 20,6 20,6 4 2 WSW 1018,6 -
11.07.2018 02:00:00 20,5 20,5 8 4 SSW 1018,9 -
11.07.2018 01:00:00 20,8 20,5 5 3 SSW 1018,9 -
11.07.2018 00:00:00 21,6 20,8 5 3 WSW 1019,1 -
10.07.2018 23:00:00 22,3 20,8 5 3 W 1019,1 18
10.07.2018 22:00:00 23,3 20,9 8 4 WNW 1018,9 -
10.07.2018 21:00:00 25,0 20,9 9 5 N 1018,8 -
10.07.2018 20:00:00 26,3 21,1 8 4 N 1018,8 20
10.07.2018 19:00:00 26,5 21,2 9 5 N 1019,0 -
10.07.2018 18:00:00 26,6 21,1 13 7 NNW 1019,2 -

tt = temperature
td = dewpoint
ff = wind speed
dd = wind direction
ppp = reduced air pressure
vv = visibility

Next stations